RH
99 98 98 97 94 89 85 82 90 94 90 93 93 93 82 81 79 79 69 63 68 89 83 73 69 58 51 48 51 49 47 40 36 38 29 31 32 29 26 27 25 24 26 32 54
86 93 97 91 94 98 94 90 83 88 88 92 90 92 85 85 80 70 63 76 77 92 71 63 60 52 49 50 52 53 51 41 37 33 34 32 30 29 28 28 27 27 32 44 53
81 80 87 91 92 93 97 96 90 86 86 88 90 88 88 86 70 48 60 80 86 92 68 60 54 48 54 51 51 53 55 40 44 39 35 34 34 27 28 32 25 27 34 45 46
79 79 82 82 84 92 97 98 95 92 94 89 91 80 92 84 45 50 84 84 86 86 62 59 53 57 58 62 49 63 49 49 44 40 38 38 32 32 29 27 24 23 30 41 41
93 87 88 81 83 82 94 97 96 96 95 90 80 86 96 77 62 54 88 84 87 77 58 55 59 53 61 54 57 62 52 50 44 41 37 37 36 33 33 27 24 24 34 38 36
88 92 96 95 87 84 84 90 95 97 96 94 87 91 88 84 51 56 82 86 79 73 62 52 51 47 49 53 55 50 51 47 47 44 40 42 38 37 32 28 27 30 34 34 33
84 81 80 84 92 96 88 84 90 94 89 94 87 94 75 63 56 51 84 80 77 68 55 52 48 50 45 54 49 48 58 56 50 47 46 42 48 46 32 30 29 29 30 32 31
80 81 85 85 89 90 95 94 89 94 95 86 90 89 81 59 63 66 75 72 70 64 46 50 45 46 47 39 45 55 55 58 45 51 45 45 52 36 32 32 31 28 27 33 31
87 88 91 91 93 92 94 94 94 85 91 91 92 78 67 66 70 61 66 64 60 50 44 39 42 48 43 50 52 54 49 52 48 47 50 51 51 37 32 36 34 29 26 29 31
86 90 94 90 87 86 76 91 82 86 75 80 82 87 59 64 57 64 64 47 42 42 39 42 45 61 52 58 61 50 60 56 52 45 54 56 55 36 25 34 35 31 27 26 28
89 89 90 90 87 84 80 76 55 64 70 47 63 52 50 52 52 54 55 42 38 45 60 46 63 76 60 52 44 44 49 53 44 42 48 53 47 40 36 25 28 29 31 28 26
78 86 86 88 90 89 84 79 73 85 94 57 45 58 52 56 54 49 46 49 50 63 52 57 64 45 46 48 52 47 49 46 33 31 40 36 39 33 33 37 28 22 27 30 27
76 84 89 90 92 87 71 59 62 81 99 70 48 56 50 60 63 51 44 46 51 59 58 58 48 42 54 57 60 54 46 42 30 28 32 36 28 26 23 25 30 29 21 25 29
82 81 89 90 83 74 70 68 80 87 99 78 52 50 53 59 67 43 42 45 48 56 53 54 40 46 58 58 53 60 45 47 44 44 42 28 30 23 20 26 27 27 25 23 28
85 86 90 94 91 75 66 72 77 84 94 36 45 39 37 56 35 50 41 51 57 51 48 51 48 49 52 54 51 52 44 50 48 48 38 34 35 22 23 21 22 26 24 23 26
86 90 89 91 84 75 75 84 78 96 92 55 50 56 60 49 42 53 51 42 46 48 47 40 38 37 39 40 47 40 43 42 41 45 68 43 32 26 20 18 15 17 22 24 24
89 93 93 88 69 72 80 85 100 92 62 61 61 61 53 59 60 52 67 72 76 90 79 51 41 37 34 42 45 43 46 66 72 74 69 35 36 26 18 18 17 17 18 23 24
94 85 84 81 79 77 89 100 93 69 58 50 56 62 64 60 59 58 62 77 56 49 50 68 63 39 34 32 42 48 40 54 57 65 40 38 37 24 19 20 19 20 20 20 24
82 83 92 85 76 94 97 96 84 61 73 65 59 57 63 61 61 68 57 61 59 47 51 65 48 33 33 31 32 40 46 34 45 43 42 34 29 23 21 22 22 21 24 23 26
87 88 78 78 83 88 100 76 75 87 83 86 89 61 43 61 65 63 57 42 46 45 38 44 62 39 36 30 33 32 27 44 63 71 50 36 32 22 22 23 22 23 26 26 28
86 82 74 86 89 95 94 81 80 58 65 72 68 74 60 58 65 77 65 55 42 48 42 47 51 45 37 39 39 41 40 42 50 56 38 30 24 22 26 24 22 20 24 26 29
74 89 82 85 89 99 86 80 63 55 57 62 72 62 61 76 94 68 77 50 46 49 59 70 91 58 45 42 40 31 50 49 56 69 65 45 25 25 24 22 23 21 26 27 29
95 89 80 81 90 85 69 74 66 60 58 72 81 83 70 61 83 75 62 58 56 52 58 85 96 92 58 46 46 45 38 53 70 49 55 42 25 25 23 25 25 25 27 30 31
91 96 90 99 100 95 81 74 80 62 67 71 77 85 98 88 73 85 75 74 64 58 58 60 84 73 67 62 74 65 65 48 49 53 35 35 25 23 23 25 29 28 28 29 30
89 85 72 87 82 87 87 87 72 76 72 69 77 72 79 97 95 91 72 86 82 75 72 92 90 75 58 44 50 52 62 69 64 45 46 29 29 20 22 22 26 28 29 31 30
95 91 96 88 77 85 94 95 73 63 66 71 87 74 70 84 59 89 91 95 82 94 100 100 86 69 72 51 43 45 42 50 47 36 33 28 28 19 23 20 29 29 32 31 31
91 91 100 77 87 88 96 97 97 98 65 54 64 78 95 76 62 70 66 66 75 97 99 100 95 92 80 58 57 66 42 40 41 34 35 44 30 29 28 24 28 29 31 30 29
Wind_Speed
19 19 19 17 16 15 15 15 14 15 14 14 14 13 10 9 11 11 15 10 11 12 14 12 11 11 10 9 6 2 7 11 11 11 5 9 9 3 2 9 4 5 2 4 27
19 20 20 20 20 19 17 15 15 15 14 14 14 12 11 10 11 21 16 12 13 16 17 18 14 14 8 9 7 11 11 13 3 6 4 9 10 11 8 10 7 9 5 21 27
20 20 21 21 21 21 21 18 14 14 14 14 14 13 9 10 7 5 3 18 17 16 14 14 15 12 12 9 11 12 13 11 4 4 2 6 7 7 8 11 12 15 17 22 26
18 18 18 19 20 20 19 20 18 15 13 12 13 12 9 4 5 2 2 21 20 15 15 15 12 13 11 12 15 9 16 4 3 3 3 5 4 7 12 2 2 8 19 24 23
22 22 20 20 19 20 20 19 19 17 13 11 11 11 4 5 9 6 6 17 19 18 16 15 15 15 14 13 9 16 6 11 9 4 3 2 7 7 10 6 2 10 18 22 21
25 24 23 22 21 20 20 20 19 18 16 13 10 9 6 10 4 3 10 16 14 17 15 14 11 11 10 7 16 6 17 11 7 8 4 6 6 3 7 8 8 14 19 20 21
24 24 25 25 24 22 20 20 19 19 18 16 12 9 12 16 4 1 12 16 16 14 11 15 7 13 7 7 6 11 4 9 13 9 9 6 13 16 8 10 11 14 16 18 19
25 26 25 25 24 24 23 21 20 20 19 18 14 10 8 10 15 16 10 7 10 10 6 13 7 12 6 5 5 11 10 13 5 14 7 9 14 7 17 14 15 15 15 17 20
24 25 26 25 25 24 23 24 22 22 19 16 11 9 12 4 11 23 18 11 12 9 8 7 9 7 6 10 7 10 8 17 8 11 9 15 12 4 5 16 18 16 16 17 17
25 25 24 26 25 24 25 21 21 21 15 11 14 8 9 7 7 10 20 15 7 11 8 9 6 9 9 11 11 14 14 8 15 8 14 13 20 8 7 13 16 18 17 17 18
24 24 24 24 24 21 18 11 7 6 17 15 10 14 0 10 5 8 20 17 10 14 12 15 12 16 21 22 15 7 12 11 7 5 8 18 20 19 15 9 14 16 18 18 19
27 25 25 25 23 20 13 3 10 2 9 17 23 19 12 2 4 8 20 14 15 16 14 7 20 19 18 19 19 10 10 9 2 3 8 10 17 17 19 20 18 16 18 19 19
27 27 26 25 23 18 16 21 15 11 5 10 21 19 23 15 14 12 20 18 18 19 21 19 4 19 15 16 19 19 16 7 1 3 7 8 15 17 18 23 21 22 18 20 21
28 27 25 23 15 8 7 7 4 9 5 6 11 11 16 12 11 19 24 15 7 20 17 15 13 11 19 20 19 20 18 14 10 5 6 2 6 6 9 13 22 22 22 20 22
29 27 23 15 12 10 14 12 9 4 6 8 9 5 16 20 9 18 27 7 14 13 9 10 14 18 17 19 20 14 11 15 13 9 7 9 6 5 4 10 20 21 23 22 22
27 23 18 12 7 12 11 5 2 3 6 5 7 13 13 26 23 8 19 14 9 10 5 6 1 11 9 9 17 10 10 8 5 6 8 15 11 8 9 9 8 18 20 21 21
23 18 14 9 6 5 2 1 4 6 4 5 6 8 18 15 21 15 20 21 12 8 10 9 6 5 6 9 11 16 17 5 6 6 7 1 11 15 9 6 3 4 14 21 20
21 18 13 12 10 8 2 3 7 4 7 3 3 7 13 11 17 15 17 18 23 20 12 12 9 12 10 11 11 20 19 5 7 6 6 4 9 6 7 1 6 4 5 16 20
19 9 5 4 3 6 2 5 3 5 0 2 7 7 8 13 9 11 20 22 20 19 11 12 13 10 12 6 16 15 15 3 2 2 3 6 6 14 13 11 6 8 7 14 19
8 6 5 6 4 6 3 6 4 2 3 4 5 5 12 14 11 16 16 16 23 23 14 6 5 5 4 5 5 9 13 8 4 7 6 5 5 8 2 7 9 9 8 12 15
3 4 3 2 6 1 3 4 5 8 6 5 4 6 3 2 9 9 12 4 22 21 19 7 4 5 7 14 16 6 9 5 2 3 5 6 4 1 2 1 10 11 8 11 14
3 3 7 1 2 2 3 4 3 9 6 6 3 6 9 3 6 12 12 9 13 13 17 6 1 7 14 3 3 14 10 14 7 7 1 3 2 2 3 3 6 9 9 9 11
1 2 4 2 3 3 4 8 5 5 6 3 3 7 3 7 4 6 9 4 7 14 17 12 5 6 5 3 2 8 11 11 3 1 10 11 5 1 1 4 5 10 10 10 11
1 2 1 1 1 5 7 5 4 4 6 3 4 2 4 5 3 4 4 2 7 6 10 14 5 7 11 10 6 8 7 7 13 11 11 11 12 6 3 7 8 10 11 12 12
2 1 3 3 2 6 8 4 10 5 4 4 3 8 3 2 3 4 4 3 3 7 10 7 7 13 13 4 7 7 13 16 14 19 17 15 13 13 3 8 9 11 12 14 14
0 2 2 5 8 9 8 1 7 10 3 3 6 1 0 5 3 5 6 7 5 7 6 5 5 14 16 5 9 10 17 20 22 23 23 18 16 8 2 7 11 13 14 15 16
1 2 2 3 5 7 3 4 4 2 5 9 6 3 2 7 6 4 7 5 4 8 9 7 5 7 15 12 5 9 19 22 22 23 21 19 18 7 7 10 14 16 16 17 18
Wind_Direction
334 340 341 328 316 318 319 321 318 322 326 328 329 319 315 309 295 264 249 243 200 162 169 166 172 168 174 186 203 206 229 230 231 212 194 160 171 161 126 142 168 155 182 120 152
324 324 325 329 328 328 310 311 313 315 324 322 326 319 313 312 293 269 239 226 199 172 171 175 177 172 183 194 192 207 224 231 268 226 202 176 204 161 177 163 186 167 120 145 155
329 320 318 317 319 326 324 312 305 308 317 318 319 322 313 315 298 246 243 203 189 173 178 183 175 181 196 187 194 209 232 223 236 217 247 184 198 178 198 200 197 193 159 160 165
321 321 321 316 309 312 319 319 311 301 306 309 311 321 310 296 281 17 309 179 184 177 164 172 177 187 203 201 197 219 230 212 224 185 187 206 158 206 211 185 248 190 166 165 172
316 311 311 314 318 309 307 312 313 307 292 297 312 319 309 242 255 295 192 178 182 176 184 177 186 197 204 207 194 222 206 221 229 190 204 181 217 234 224 205 136 152 165 173 177
319 325 318 309 307 310 306 303 308 310 293 284 296 307 240 253 266 253 179 177 176 185 193 194 198 200 216 216 211 201 231 227 218 208 203 215 217 217 220 171 154 165 176 181 182
315 316 312 312 317 303 299 307 300 299 303 277 278 269 247 241 232 296 202 200 188 197 192 204 202 186 174 211 224 204 188 221 227 211 223 214 240 229 217 188 188 188 184 184 186
315 313 312 312 308 303 306 293 299 295 295 286 268 253 252 246 242 241 217 209 194 201 212 198 191 205 212 132 159 206 232 231 170 205 195 193 250 234 211 197 197 196 189 188 190
316 313 312 306 305 301 297 298 290 290 286 278 261 214 258 206 221 228 198 199 185 189 197 175 187 198 174 193 188 196 235 218 216 204 189 207 251 249 218 213 216 204 197 194 191
318 317 313 309 313 308 300 301 285 283 272 247 242 219 237 220 195 187 192 175 165 170 157 182 189 193 200 195 206 204 219 223 219 187 203 208 239 212 194 214 224 214 208 200 195
316 315 312 311 313 316 322 315 274 237 226 209 196 213 12 195 151 184 172 168 168 184 188 192 200 205 199 206 223 275 213 222 199 179 209 230 243 240 221 210 222 221 215 208 201
315 313 307 307 310 312 302 245 256 292 296 236 246 235 220 71 182 180 176 175 184 193 186 183 219 213 216 211 222 213 204 211 186 171 222 250 258 250 238 232 222 216 215 210 204
310 309 305 304 307 296 259 259 271 247 236 255 232 229 226 220 236 198 189 196 197 199 197 206 187 217 208 201 209 217 216 175 359 172 235 287 271 236 233 229 225 226 215 212 204
308 305 301 306 298 285 261 288 286 249 250 208 216 229 195 211 236 213 194 182 190 206 201 226 205 193 207 212 206 222 220 238 223 272 262 282 286 240 214 220 221 217 211 206 204
311 306 299 293 285 279 276 289 305 2 251 150 194 171 195 192 165 194 186 197 186 165 190 193 198 199 202 208 201 220 203 213 225 238 277 219 259 236 176 225 224 219 210 203 198
319 310 301 294 259 270 276 270 351 205 262 153 164 187 185 205 211 135 181 192 204 179 204 221 139 208 207 200 200 138 133 135 181 222 248 234 226 246 220 228 225 214 211 202 194
319 310 301 275 258 269 238 105 240 222 334 192 201 190 198 192 206 193 189 194 181 177 191 191 201 162 164 145 167 184 170 149 183 202 238 280 211 249 222 194 208 194 212 203 192
316 313 292 262 268 242 152 191 249 260 193 200 290 199 191 178 195 202 196 201 208 205 199 199 206 178 181 203 175 192 192 187 189 196 194 181 228 247 251 273 234 185 191 197 191
322 314 284 331 287 190 183 240 265 279 18 295 290 238 188 185 156 180 211 207 200 206 201 201 214 175 183 157 160 186 219 253 94 74 195 189 247 278 245 234 185 188 168 185 190
319 303 304 329 189 150 246 262 247 255 161 135 263 274 223 191 180 192 193 212 207 202 219 189 178 197 145 148 195 209 166 190 242 184 219 186 248 249 172 207 186 185 179 172 184
344 312 13 35 145 150 245 269 278 250 239 218 238 261 308 274 184 206 206 181 198 199 199 187 235 148 165 207 185 163 194 210 247 289 237 222 210 90 265 269 193 181 171 165 176
358 290 354 85 279 237 246 215 257 268 232 249 291 252 251 204 198 196 203 217 198 176 197 168 251 190 198 76 343 229 216 201 210 203 187 311 188 162 274 268 199 162 157 152 164
344 278 4 310 270 259 268 258 257 261 251 205 251 241 253 230 186 185 243 175 168 180 163 160 171 154 172 214 198 219 202 211 135 192 202 213 188 115 283 142 141 151 152 149 150
39 319 301 57 312 296 304 298 251 230 244 215 252 187 221 220 117 176 195 78 176 207 151 164 164 209 206 209 143 196 207 222 216 224 208 224 242 218 176 155 148 147 150 150 153
24 342 328 303 294 293 296 273 279 257 222 196 251 240 165 313 143 184 156 118 152 183 171 146 216 219 241 251 201 230 193 184 201 220 223 222 225 242 166 181 168 156 149 150 153
339 287 265 290 297 287 279 224 266 252 268 238 241 297 226 214 211 163 151 241 192 192 164 179 254 207 217 214 212 231 221 205 215 218 224 230 233 234 91 141 161 165 162 160 159
84 285 296 294 308 311 358 325 292 214 255 239 246 255 236 251 251 256 236 223 176 177 193 171 198 197 219 183 204 251 223 213 222 224 218 220 223 176 191 192 183 174 171 166 163